Location: Boiro
(42.6475°N, 8.8834°W)
Time: 05:49:29
(UTC+01:00)

DELFI C3 - Visible Passes

Search period start: 27 January 2022 00:00
Search period end: 06 February 2022 00:00
Orbit: 525 x 543 km, 97.4° (Epoch: 26 January)

Date Brightness Start Highest point End Pass type
(mag) Time Alt. Az. Time Alt. Az. Time Alt. Az.
27 Jan ? 19:59:11 10° SE 20:02:38 33° ENE 20:06:06 10° N visible
27 Jan ? 21:34:33 10° SW 21:37:10 17° W 21:39:48 10° NW visible
28 Jan ? 19:50:25 10° SE 19:53:39 26° ENE 19:56:53 10° NNE visible
28 Jan ? 21:25:02 10° SSW 21:28:04 22° W 21:31:06 10° NW visible
29 Jan ? 19:41:43 10° ESE 19:44:39 21° ENE 19:47:35 10° NNE visible
29 Jan ? 21:15:38 10° SSW 21:18:57 28° W 21:22:17 10° NW visible
30 Jan ? 19:33:07 10° ESE 19:35:39 17° ENE 19:38:12 10° NNE visible
30 Jan ? 21:06:19 10° SSW 21:09:50 35° W 21:13:23 10° NNW visible
31 Jan ? 19:24:40 10° E 19:26:40 14° ENE 19:28:41 10° NNE visible
31 Jan ? 20:57:03 10° S 21:00:43 45° W 21:04:26 10° NNW visible
01 Feb ? 19:16:34 10° E 19:17:41 11° ENE 19:18:49 10° NE visible
01 Feb ? 20:47:50 10° S 20:51:37 59° W 20:55:25 10° NNW visible
02 Feb ? 20:38:42 10° S 20:42:31 78° WSW 20:46:22 10° NNW visible
03 Feb ? 08:14:17 10° ENE 08:15:33 11° E 08:16:49 10° ESE visible
03 Feb ? 20:29:35 10° SSE 20:33:25 81° ENE 20:37:15 10° N visible
04 Feb ? 20:20:33 10° SSE 20:24:19 62° ENE 20:28:06 10° N visible
05 Feb ? 20:11:32 10° SSE 20:15:12 47° ENE 20:18:55 10° N visible
05 Feb ? 21:48:21 10° WSW 21:49:56 12° W 21:51:31 10° WNW visible
